Keokuk, IA

5:43 PM CDT on August 21, 2017 (GMT -0500)
Keokuk Municipal

Weather History for KEOK - October, 2013

Change the Weather History Date:

Monday, October 14, 2013

  Actual Average Record
Temperature  
Mean Temperature 55 °F -  
Max Temperature 68 °F 68 °F 90 °F (1938)
Min Temperature 42 °F 45 °F 27 °F (1937)
Degree Days  
Heating Degree Days 10    
Growing Degree Days 5 (Base 50)    
Moisture  
Dew Point 39 °F    
Average Humidity 54    
Maximum Humidity 81    
Minimum Humidity 35    
Precipitation  
Precipitation 0.00 in - - ()
Sea Level Pressure  
Sea Level Pressure 30.22 in    
Wind  
Wind Speed 9 mph (ESE)    
Max Wind Speed 21 mph    
Max Gust Speed 24 mph    
Visibility 10 miles    
Events      
Averages and records for this station are not official NWS values.
T = Trace of Precipitation, MM = Missing Value Source: NWS Daily Summary

Daily Weather History Graph

Daily Weather History Graph

Search for Another Location

Airport or City:

Trip Planner

Search our weather history database for the weather conditions in past years. The results will help you decide how hot, cold, wet, or windy it might be!

Date:

Astronomy

Oct. 14, 2013 Rise Set
Actual Time 7:15 AM CDT 6:26 PM CDT
Civil Twilight 6:48 AM CDT 6:54 PM CDT
Nautical Twilight 6:16 AM CDT 7:25 PM CDT
Astronomical Twilight 5:45 AM CDT 7:57 PM CDT
Moon 3:57 PM CDT (10/14) 2:31 AM CDT (10/14)
Length of Visible Light 12h 05m
Length of Day
11h 10m
Waxing Gibbous, 79% of the Moon is Illuminated
Oct 14
Waxing Gibbous
Oct 18
Full
Oct 26
Last Quarter
Nov 3
New
Nov 9
First Quarter

Hourly Weather History & Observations

Time (CDT) Temp. Windchill Dew Point Humidity Pressure Visibility Wind Dir Wind Speed Gust Speed Precip Events Conditions
12:15 AM 50.0 °F - 32.0 °F 50% 30.37 in 10.0 mi NE 4.6 mph - N/A   Clear
12:35 AM 50.0 °F - 32.0 °F 50% 30.36 in 10.0 mi NE 5.8 mph - N/A   Clear
12:55 AM 50.0 °F - 32.0 °F 50% 30.36 in 10.0 mi ENE 6.9 mph - N/A   Clear
1:15 AM 48.2 °F - 32.0 °F 54% 30.36 in 10.0 mi ENE 6.9 mph - N/A   Clear
1:35 AM 50.0 °F - 32.0 °F 50% 30.36 in 10.0 mi ENE 6.9 mph - N/A   Clear
1:55 AM 48.2 °F - 32.0 °F 54% 30.36 in 10.0 mi ENE 4.6 mph - N/A   Clear
2:15 AM 46.4 °F 44.3 °F 32.0 °F 57% 30.36 in 10.0 mi ENE 4.6 mph - N/A   Clear
2:35 AM 48.2 °F - 33.8 °F 58% 30.35 in 10.0 mi ENE 4.6 mph - N/A   Clear
2:55 AM 48.2 °F - 32.0 °F 54% 30.35 in 10.0 mi ENE 5.8 mph - N/A   Clear
3:15 AM 46.4 °F - 33.8 °F 62% 30.35 in 10.0 mi Calm Calm - N/A   Clear
3:35 AM 46.4 °F 43.5 °F 33.8 °F 62% 30.35 in 10.0 mi East 5.8 mph - N/A   Clear
3:55 AM 46.4 °F 42.9 °F 33.8 °F 62% 30.34 in 10.0 mi East 6.9 mph - N/A   Clear
4:15 AM 44.6 °F 39.7 °F 33.8 °F 66% 30.34 in 10.0 mi East 9.2 mph - N/A   Clear
4:35 AM 44.6 °F 39.7 °F 35.6 °F 71% 30.34 in 10.0 mi East 9.2 mph - N/A   Clear
4:55 AM 44.6 °F 40.7 °F 35.6 °F 71% 30.34 in 10.0 mi East 6.9 mph 12.7 mph N/A   Clear
5:15 AM 46.4 °F 42.4 °F 35.6 °F 66% 30.34 in 10.0 mi ESE 8.1 mph - N/A   Clear
5:35 AM 46.4 °F 41.9 °F 35.6 °F 66% 30.34 in 10.0 mi ESE 9.2 mph - N/A   Clear
5:55 AM 46.4 °F 41.9 °F 35.6 °F 66% 30.34 in 10.0 mi ESE 9.2 mph - N/A   Clear
6:15 AM 44.6 °F 39.7 °F 37.4 °F 76% 30.34 in 10.0 mi ESE 9.2 mph - N/A   Clear
6:35 AM 44.6 °F 39.7 °F 37.4 °F 76% 30.33 in 10.0 mi East 9.2 mph - N/A   Clear
6:55 AM 42.8 °F 38.6 °F 37.4 °F 81% 30.34 in 10.0 mi Variable 6.9 mph - N/A   Clear
7:15 AM 42.8 °F 37.0 °F 37.4 °F 81% 30.34 in 10.0 mi East 10.4 mph - N/A   Clear
7:35 AM 44.6 °F 39.2 °F 37.4 °F 76% 30.33 in 10.0 mi East 10.4 mph - N/A   Clear
7:55 AM 44.6 °F 39.7 °F 39.2 °F 81% 30.34 in 10.0 mi ESE 9.2 mph - N/A   Clear
8:15 AM 46.4 °F 41.9 °F 39.2 °F 76% 30.34 in 10.0 mi ESE 9.2 mph - N/A   Clear
8:35 AM 50.0 °F - 39.2 °F 66% 30.33 in 10.0 mi ESE 10.4 mph - N/A   Clear
8:55 AM 51.8 °F - 41.0 °F 67% 30.34 in 10.0 mi ESE 11.5 mph - N/A   Clear
9:15 AM 51.8 °F - 41.0 °F 67% 30.33 in 10.0 mi ESE 17.3 mph - N/A   Clear
9:35 AM 53.6 °F - 41.0 °F 62% 30.33 in 10.0 mi ESE 13.8 mph - N/A   Clear
9:55 AM 55.4 °F - 42.8 °F 63% 30.31 in 10.0 mi East 16.1 mph - N/A   Clear
10:15 AM 57.2 °F - 41.0 °F 55% 30.31 in 10.0 mi ESE 18.4 mph - N/A   Clear
10:35 AM 59.0 °F - 41.0 °F 51% 30.30 in 10.0 mi East 20.7 mph - N/A   Clear
10:55 AM 57.2 °F - 41.0 °F 55% 30.29 in 10.0 mi ESE 13.8 mph 24.2 mph N/A   Clear
11:15 AM 59.0 °F - 41.0 °F 51% 30.28 in 10.0 mi ESE 15.0 mph - N/A   Clear
11:35 AM 59.0 °F - 41.0 °F 51% 30.28 in 10.0 mi ESE 18.4 mph - N/A   Clear
11:55 AM 60.8 °F - 39.2 °F 45% 30.27 in 10.0 mi ESE 16.1 mph - N/A   Clear
12:15 PM 60.8 °F - 39.2 °F 45% 30.26 in 10.0 mi ESE 12.7 mph 20.7 mph N/A   Clear
12:35 PM 62.6 °F - 41.0 °F 45% 30.25 in 10.0 mi East 17.3 mph - N/A   Clear
12:55 PM 64.4 °F - 39.2 °F 40% 30.23 in 10.0 mi SE 16.1 mph - N/A   Clear
1:15 PM 64.4 °F - 39.2 °F 40% 30.22 in 10.0 mi SE 12.7 mph 18.4 mph N/A   Clear
1:35 PM 64.4 °F - 39.2 °F 40% 30.21 in 10.0 mi SE 12.7 mph 18.4 mph N/A   Clear
1:55 PM 66.2 °F - 39.2 °F 37% 30.19 in 10.0 mi SE 13.8 mph - N/A   Clear
2:15 PM 64.4 °F - 39.2 °F 40% 30.18 in 10.0 mi ESE 10.4 mph - N/A   Clear
2:35 PM 66.2 °F - 39.2 °F 37% 30.16 in 10.0 mi SE 11.5 mph 19.6 mph N/A   Clear
2:55 PM 66.2 °F - 39.2 °F 37% 30.15 in 10.0 mi ESE 13.8 mph - N/A   Clear
3:15 PM 66.2 °F - 39.2 °F 37% 30.14 in 10.0 mi ESE 13.8 mph - N/A   Clear
3:35 PM 68.0 °F - 39.2 °F 35% 30.12 in 10.0 mi ESE 16.1 mph - N/A   Clear
3:55 PM 66.2 °F - 39.2 °F 37% 30.13 in 10.0 mi SE 12.7 mph 18.4 mph N/A   Clear
4:15 PM 68.0 °F - 39.2 °F 35% 30.13 in 10.0 mi SE 13.8 mph - N/A   Clear
4:35 PM 66.2 °F - 39.2 °F 37% 30.11 in 10.0 mi ESE 12.7 mph - N/A   Clear
4:55 PM 66.2 °F - 39.2 °F 37% 30.10 in 10.0 mi SE 12.7 mph 18.4 mph N/A   Clear
5:15 PM 66.2 °F - 39.2 °F 37% 30.10 in 10.0 mi SE 10.4 mph - N/A   Clear
5:35 PM 64.4 °F - 41.0 °F 42% 30.10 in 10.0 mi SE 9.2 mph 16.1 mph N/A   Clear
5:55 PM 64.4 °F - 41.0 °F 42% 30.09 in 10.0 mi ESE 8.1 mph - N/A   Clear
6:15 PM 62.6 °F - 41.0 °F 45% 30.09 in 10.0 mi SE 9.2 mph 15.0 mph N/A   Clear
6:35 PM 62.6 °F - 41.0 °F 45% 30.09 in 10.0 mi SE 8.1 mph - N/A   Clear
6:55 PM 62.6 °F - 41.0 °F 45% 30.08 in 10.0 mi ESE 9.2 mph - N/A   Clear
7:15 PM 62.6 °F - 41.0 °F 45% 30.07 in 10.0 mi ESE 10.4 mph - N/A   Clear
7:35 PM 60.8 °F - 41.0 °F 48% 30.07 in 10.0 mi ESE 9.2 mph - N/A   Clear
7:55 PM 60.8 °F - 41.0 °F 48% 30.06 in 10.0 mi ESE 10.4 mph - N/A   Clear
8:15 PM 60.8 °F - 41.0 °F 48% 30.06 in 10.0 mi ESE 13.8 mph - N/A   Clear
8:35 PM 60.8 °F - 41.0 °F 48% 30.05 in 10.0 mi ESE 12.7 mph - N/A   Clear
8:55 PM 60.8 °F - 41.0 °F 48% 30.06 in 10.0 mi SE 9.2 mph - N/A   Scattered Clouds
9:15 PM 60.8 °F - 42.8 °F 52% 30.05 in 10.0 mi SE 10.4 mph - N/A   Overcast
9:35 PM 59.0 °F - 44.6 °F 59% 30.04 in 10.0 mi SE 16.1 mph - N/A   Mostly Cloudy
9:55 PM 59.0 °F - 44.6 °F 59% 30.03 in 10.0 mi SE 13.8 mph - N/A   Mostly Cloudy
10:15 PM 59.0 °F - 44.6 °F 59% 30.03 in 10.0 mi SE 12.7 mph - N/A   Mostly Cloudy
10:35 PM 59.0 °F - 44.6 °F 59% 30.02 in 10.0 mi SE 12.7 mph 19.6 mph N/A   Mostly Cloudy
10:55 PM 59.0 °F - 46.4 °F 63% 30.01 in 10.0 mi SE 13.8 mph - N/A   Mostly Cloudy
11:15 PM 59.0 °F - 46.4 °F 63% 30.00 in 10.0 mi SE 13.8 mph 19.6 mph N/A   Mostly Cloudy
11:35 PM 60.8 °F - 46.4 °F 59% 30.00 in 10.0 mi SSE 13.8 mph 24.2 mph N/A   Overcast
11:55 PM 60.8 °F - 48.2 °F 63% 30.00 in 10.0 mi SSE 12.7 mph 20.7 mph N/A   Mostly Cloudy